Datum;Zeit;Leistung;Tagesertrag;Temperatur WR
29.08.2016;14:25:00;2114;9.5;40
29.08.2016;14:35:00;1985;9.9;41
29.08.2016;14:45:00;2543;10.3;41
29.08.2016;14:55:00;2949;10.7;41
29.08.2016;15:05:00;4863;11.5;43
29.08.2016;15:15:00;4648;12.2;46
29.08.2016;15:25:00;2729;12.7;44
29.08.2016;15:35:00;2248;13.1;44
29.08.2016;15:45:00;1639;13.4;43
29.08.2016;15:55:00;1820;13.7;42
29.08.2016;16:05:00;1541;13.9;41
29.08.2016;16:15:00;1952;14.3;41
29.08.2016;16:25:00;1577;14.5;41
29.08.2016;16:35:00;1592;14.8;40
29.08.2016;16:45:00;1791;15.1;40
29.08.2016;16:55:00;1844;15.4;40
29.08.2016;17:05:00;1748;15.7;40
29.08.2016;17:15:00;2007;16.0;40
29.08.2016;17:25:00;1557;16.3;40
29.08.2016;17:35:00;1778;16.5;40
29.08.2016;17:45:00;1783;16.9;40
29.08.2016;17:55:00;1390;17.1;40
29.08.2016;18:05:00;960;17.3;39
29.08.2016;18:15:00;848;17.5;39
29.08.2016;18:25:00;502;17.6;39
29.08.2016;18:35:00;309;17.6;38
29.08.2016;18:45:00;312;17.7;38
29.08.2016;18:55:00;377;17.7;38
29.08.2016;19:05:00;426;17.8;38
29.08.2016;19:15:00;345;17.9;38
29.08.2016;19:25:00;262;17.9;38
29.08.2016;19:35:00;238;17.9;37
29.08.2016;19:45:00;162;18.0;37
29.08.2016;19:55:00;110;18.0;37
29.08.2016;21:00:00;0;18.0;0
30.08.2016;07:00:00;0;0;30
30.08.2016;07:10:00;157;0;31
30.08.2016;07:20:00;259;0;31
30.08.2016;07:30:00;382;0.1;32
30.08.2016;07:40:00;493;0.1;32
30.08.2016;07:50:00;582;0.2;32
30.08.2016;08:00:00;569;0.3;33
30.08.2016;08:10:00;634;0.4;33
30.08.2016;08:20:00;886;0.6;33
30.08.2016;08:30:00;1047;0.7;34
30.08.2016;08:40:00;1180;0.9;34
30.08.2016;08:50:00;1386;1.1;34
30.08.2016;09:00:00;1600;1.4;34
30.08.2016;09:10:00;1973;1.7;35
30.08.2016;09:20:00;1699;2.0;35
30.08.2016;09:30:00;2608;2.4;36
30.08.2016;09:40:00;1630;2.9;37
30.08.2016;09:50:00;3785;3.4;38
30.08.2016;10:00:00;2427;4.0;40
30.08.2016;10:10:00;4202;4.6;40
30.08.2016;10:20:00;4962;5.4;43
30.08.2016;10:30:00;5230;6.3;45
30.08.2016;10:40:00;5441;7.1;47
30.08.2016;10:50:00;5662;8.1;48
30.08.2016;11:00:00;5863;9.0;44
30.08.2016;11:10:00;6085;10.0;48
30.08.2016;11:20:00;6255;11.0;45
30.08.2016;11:30:00;6417;12.1;46
30.08.2016;11:40:00;6648;13.2;47
30.08.2016;11:50:00;6806;14.3;44
30.08.2016;12:00:00;6542;15.4;47
30.08.2016;12:10:00;5421;16.4;46
30.08.2016;12:20:00;7336;17.6;44
30.08.2016;12:30:00;7234;18.8;47
30.08.2016;12:40:00;6759;20.0;47
30.08.2016;12:50:00;5675;20.7;48
30.08.2016;13:00:00;7302;22.0;45
30.08.2016;13:10:00;5834;23.0;44
30.08.2016;13:20:00;7045;24.0;47
30.08.2016;13:30:00;7201;25.1;45
30.08.2016;13:40:00;8394;26.2;46
30.08.2016;13:50:00;6443;27.4;46
30.08.2016;14:00:00;6843;28.6;44
30.08.2016;14:10:00;7838;29.9;46
30.08.2016;14:20:00;3642;30.7;45
30.08.2016;14:30:00;6838;31.8;45
30.08.2016;14:40:00;6238;32.9;47
30.08.2016;14:50:00;6364;34.1;45
30.08.2016;15:00:00;7170;35.2;45
30.08.2016;15:10:00;5671;36.1;46
30.08.2016;15:20:00;7203;37.3;44
30.08.2016;15:30:00;4584;38.2;48
30.08.2016;15:40:00;3504;38.9;48
30.08.2016;15:50:00;3155;39.5;43
30.08.2016;16:00:00;2946;40.0;44
30.08.2016;16:10:00;3692;40.6;45
30.08.2016;16:20:00;2397;41.0;45
30.08.2016;16:30:00;3811;41.5;45
30.08.2016;16:40:00;3317;42.0;46
30.08.2016;16:50:00;2254;42.4;45
30.08.2016;17:00:00;2323;42.8;45
30.08.2016;17:10:00;1791;43.2;44
30.08.2016;17:20:00;1699;43.5;43
30.08.2016;17:30:00;2032;43.8;43
30.08.2016;17:40:00;2453;44.2;43
30.08.2016;17:50:00;1620;44.5;42
30.08.2016;18:00:00;1533;44.8;42
30.08.2016;18:10:00;1073;45.0;41
30.08.2016;18:20:00;911;45.1;40
30.08.2016;18:30:00;812;45.3;40
30.08.2016;18:40:00;726;45.4;40
30.08.2016;18:50:00;530;45.5;39
30.08.2016;19:00:00;490;45.6;39
30.08.2016;19:10:00;440;45.6;39
30.08.2016;19:20:00;394;45.7;39
30.08.2016;19:30:00;320;45.8;38
30.08.2016;19:40:00;254;45.8;38
30.08.2016;19:50:00;173;45.8;38
30.08.2016;20:00:00;113;45.9;38
30.08.2016;20:10:00;0;45.9;0
30.08.2016;20:20:00;0;45.9;0
30.08.2016;21:00:00;0;45.9;0
31.08.2016;06:50:00;38;0;26
31.08.2016;07:00:00;166;0;30
31.08.2016;07:10:00;221;0;31
31.08.2016;07:20:00;300;0.1;32
31.08.2016;07:30:00;376;0.1;32
31.08.2016;07:40:00;443;0.2;32
31.08.2016;07:50:00;508;0.3;33
31.08.2016;08:00:00;617;0.4;33
31.08.2016;08:10:00;717;0.5;33
31.08.2016;08:20:00;823;0.6;33
31.08.2016;08:30:00;1107;0.8;34
31.08.2016;08:40:00;1253;1.0;34
31.08.2016;08:50:00;1449;1.2;34
31.08.2016;09:00:00;1578;1.5;34
31.08.2016;09:10:00;1989;1.8;35
31.08.2016;09:20:00;2729;2.2;36
31.08.2016;09:30:00;3149;2.7;37
31.08.2016;09:40:00;3498;3.3;38
31.08.2016;09:50:00;3841;3.9;40
31.08.2016;10:00:00;4203;4.6;41
31.08.2016;10:10:00;4522;5.3;43
31.08.2016;10:20:00;4795;6.1;44
31.08.2016;10:30:00;4885;6.9;46
31.08.2016;10:40:00;4519;7.6;46
31.08.2016;10:50:00;5263;8.4;47
31.08.2016;11:00:00;5571;9.3;46
31.08.2016;11:10:00;5743;10.3;46
31.08.2016;11:20:00;5412;11.2;48
31.08.2016;11:30:00;5961;12.2;44
31.08.2016;11:40:00;6250;13.2;47
31.08.2016;11:50:00;6541;14.3;46
31.08.2016;12:00:00;6742;15.4;44
31.08.2016;12:10:00;6804;16.5;47
31.08.2016;12:20:00;6797;17.6;46
31.08.2016;12:30:00;6961;18.8;44
31.08.2016;12:40:00;7078;19.9;47
31.08.2016;12:50:00;7125;21.1;47
31.08.2016;13:00:00;7111;22.3;44
31.08.2016;13:10:00;7134;23.4;45
31.08.2016;13:20:00;7174;24.6;47
31.08.2016;13:30:00;7284;25.8;46
31.08.2016;13:40:00;7238;27.0;44
31.08.2016;13:50:00;7127;28.2;46
31.08.2016;14:00:00;7199;29.4;47
31.08.2016;14:10:00;7162;30.6;45
31.08.2016;14:20:00;7022;31.7;44
31.08.2016;14:30:00;7056;32.9;47
31.08.2016;14:40:00;6939;34.0;46
31.08.2016;14:50:00;6852;35.2;44
31.08.2016;15:00:00;6660;36.3;46
31.08.2016;15:10:00;6575;37.4;47
31.08.2016;15:20:00;6494;38.4;44
31.08.2016;15:30:00;6367;39.5;46
31.08.2016;15:40:00;6234;40.5;47
31.08.2016;15:50:00;6172;41.5;44
31.08.2016;16:00:00;5891;42.5;48
31.08.2016;16:10:00;5774;43.5;45
31.08.2016;16:20:00;5538;44.4;47
31.08.2016;16:30:00;5360;45.3;45
31.08.2016;16:40:00;5135;46.2;48
31.08.2016;16:50:00;4799;47.0;45
31.08.2016;17:00:00;4435;47.7;47
31.08.2016;17:10:00;4242;48.4;48
31.08.2016;17:20:00;3963;49.1;45
31.08.2016;17:30:00;3709;49.7;45
31.08.2016;17:40:00;3474;50.3;46
31.08.2016;17:50:00;3171;50.8;47
31.08.2016;18:00:00;2884;51.3;46
31.08.2016;18:10:00;2576;51.8;46
31.08.2016;18:20:00;2246;52.1;45
31.08.2016;18:30:00;1863;52.5;44
31.08.2016;18:40:00;1509;52.7;43
31.08.2016;18:50:00;1262;53.0;43
31.08.2016;19:00:00;987;53.1;42
31.08.2016;19:10:00;708;53.3;41
31.08.2016;19:20:00;475;53.3;40
31.08.2016;19:30:00;374;53.4;40
31.08.2016;19:40:00;241;53.5;40
31.08.2016;19:50:00;158;53.5;40
31.08.2016;20:00:00;120;53.5;39
31.08.2016;21:10:00;0;53.5;0
31.08.2016;21:20:00;0;53.5;0
01.09.2016;06:45:00;0;0;6
01.09.2016;06:55:00;139;0;30
01.09.2016;07:05:00;218;0;31
01.09.2016;07:15:00;362;0.1;32
01.09.2016;07:25:00;432;0.1;32
01.09.2016;07:35:00;351;0.2;32
01.09.2016;07:45:00;378;0.2;33
01.09.2016;07:55:00;532;0.3;33
01.09.2016;08:05:00;627;0.4;33
01.09.2016;08:15:00;635;0.5;34
01.09.2016;08:25:00;1064;0.7;34
01.09.2016;08:35:00;1358;0.9;34
01.09.2016;08:45:00;1878;1.2;34
01.09.2016;08:55:00;1110;1.4;34
01.09.2016;09:05:00;1909;1.7;35
01.09.2016;09:15:00;2611;2.1;36
01.09.2016;09:25:00;3016;2.6;37
01.09.2016;09:35:00;3477;3.1;38
01.09.2016;09:45:00;2529;3.6;39
01.09.2016;09:55:00;3505;4.1;39
01.09.2016;10:05:00;4307;4.8;42
01.09.2016;10:25:00;4916;6.4;45
01.09.2016;10:35:00;4981;7.2;47
01.09.2016;10:45:00;5419;8.1;48
01.09.2016;10:55:00;5501;9.0;44
01.09.2016;11:05:00;5714;9.9;47
01.09.2016;11:15:00;6004;10.9;45
01.09.2016;11:25:00;1676;11.4;43
01.09.2016;11:35:00;6713;12.3;46
01.09.2016;11:45:00;6623;13.3;44
01.09.2016;11:55:00;6735;14.4;46
01.09.2016;12:05:00;7038;15.6;47
01.09.2016;12:15:00;7448;16.8;45
01.09.2016;12:25:00;4865;17.9;44
01.09.2016;12:35:00;3847;18.6;44
01.09.2016;12:45:00;3509;19.1;45
01.09.2016;12:55:00;5025;19.9;48
01.09.2016;13:05:00;7743;21.1;44
01.09.2016;13:15:00;7251;22.3;46
01.09.2016;13:25:00;7110;23.5;47
01.09.2016;13:35:00;7435;24.7;45
01.09.2016;13:45:00;6374;25.6;47
01.09.2016;13:55:00;5640;26.5;44
01.09.2016;14:05:00;6151;27.3;47
01.09.2016;14:15:00;2359;27.7;43
01.09.2016;14:25:00;6328;28.5;47
01.09.2016;14:35:00;5373;29.4;44
01.09.2016;14:45:00;2212;29.9;43
01.09.2016;14:55:00;2120;30.2;43
01.09.2016;15:05:00;4753;31.2;47
01.09.2016;15:15:00;6331;32.3;44
01.09.2016;15:25:00;6438;33.3;47
01.09.2016;15:35:00;5902;34.2;46
01.09.2016;15:45:00;1434;34.6;45
01.09.2016;15:55:00;7052;35.5;47
01.09.2016;16:05:00;4695;36.5;44
01.09.2016;16:15:00;5603;37.4;48
01.09.2016;16:25:00;5568;38.3;45
01.09.2016;16:35:00;1315;38.7;45
01.09.2016;16:45:00;1745;39.0;44
01.09.2016;16:55:00;1440;39.3;43
01.09.2016;17:05:00;4290;40.0;46
01.09.2016;17:15:00;1507;40.3;44
01.09.2016;17:25:00;1714;40.6;43
01.09.2016;17:35:00;2749;40.9;43
01.09.2016;17:45:00;3099;41.4;44
01.09.2016;17:55:00;2564;41.9;44
01.09.2016;18:05:00;2556;42.3;44
01.09.2016;18:15:00;2292;42.7;44
01.09.2016;18:25:00;1957;43.0;43
01.09.2016;18:35:00;1621;43.3;43
01.09.2016;18:45:00;1290;43.5;42
01.09.2016;18:55:00;733;43.6;41
01.09.2016;19:05:00;637;43.7;40
01.09.2016;19:15:00;561;43.8;40
01.09.2016;19:25:00;370;43.9;40
01.09.2016;19:35:00;276;44.0;39
01.09.2016;19:45:00;171;44.0;39
01.09.2016;19:55:00;120;44.0;39
01.09.2016;20:05:00;87;44.0;39
01.09.2016;20:10:00;0;44.0;5
02.09.2016;06:50:00;0;0;8
02.09.2016;07:00:00;147;0;30
02.09.2016;07:10:00;196;0;31
02.09.2016;07:20:00;255;0;32
02.09.2016;07:30:00;314;0.1;32
02.09.2016;07:40:00;359;0.1;32
02.09.2016;07:50:00;402;0.2;33
02.09.2016;08:00:00;451;0.3;33
02.09.2016;08:10:00;499;0.4;33
02.09.2016;08:20:00;606;0.5;33
02.09.2016;08:30:00;998;0.6;34
02.09.2016;08:40:00;1182;0.8;34
02.09.2016;08:50:00;1357;1.0;34
02.09.2016;09:00:00;1428;1.2;34
02.09.2016;09:10:00;1744;1.5;35
02.09.2016;09:20:00;3058;2.0;35
02.09.2016;09:30:00;3588;2.5;37
02.09.2016;09:40:00;4127;3.2;39
02.09.2016;09:50:00;4256;3.9;41
02.09.2016;10:00:00;3928;4.6;43
02.09.2016;10:10:00;3308;5.2;43
02.09.2016;10:20:00;4540;5.9;43
02.09.2016;10:30:00;4766;6.6;45
02.09.2016;10:40:00;4520;7.4;46
02.09.2016;10:50:00;4485;8.1;47
02.09.2016;11:00:00;5514;9.0;48
02.09.2016;11:10:00;5760;9.9;44
02.09.2016;11:20:00;6079;10.9;47
02.09.2016;11:30:00;6103;11.9;44
02.09.2016;11:40:00;6287;12.9;47
02.09.2016;11:50:00;6450;13.9;44
02.09.2016;12:00:00;6539;15.0;47
02.09.2016;12:10:00;6653;16.1;46
02.09.2016;12:20:00;6648;17.2;44
02.09.2016;12:30:00;6725;18.3;48
02.09.2016;12:40:00;6543;19.4;45
02.09.2016;12:50:00;6768;20.5;44
02.09.2016;13:00:00;6989;21.6;48
02.09.2016;13:10:00;7123;22.8;45
02.09.2016;13:20:00;7223;24.0;44
02.09.2016;13:30:00;7409;25.2;46
02.09.2016;13:40:00;7341;26.4;47
02.09.2016;13:50:00;3373;27.3;44
02.09.2016;14:00:00;4922;27.9;45
02.09.2016;14:10:00;7656;28.8;47
02.09.2016;14:20:00;7314;29.9;47
02.09.2016;14:30:00;6864;31.1;44
02.09.2016;14:40:00;1812;31.8;43
02.09.2016;14:50:00;6634;32.6;45
02.09.2016;15:00:00;5977;33.5;46
02.09.2016;15:10:00;6162;34.6;47
02.09.2016;15:20:00;6681;35.6;44
02.09.2016;15:30:00;6266;36.7;48
02.09.2016;15:40:00;5956;37.7;45
02.09.2016;15:50:00;5817;38.7;46
02.09.2016;16:00:00;5814;39.7;46
02.09.2016;16:10:00;5165;40.5;44
02.09.2016;16:20:00;5308;41.4;46
02.09.2016;16:30:00;4880;42.3;44
02.09.2016;16:40:00;5228;43.1;46
02.09.2016;16:50:00;4490;43.9;48
02.09.2016;17:00:00;4123;44.6;44
02.09.2016;17:10:00;3321;45.1;44
02.09.2016;17:20:00;3282;45.7;45
02.09.2016;17:30:00;2586;46.1;45
02.09.2016;17:40:00;2952;46.6;46
02.09.2016;17:50:00;2032;47.0;45
02.09.2016;18:00:00;1478;47.2;44
02.09.2016;18:10:00;1327;47.5;43
02.09.2016;18:20:00;1863;47.8;43
02.09.2016;18:30:00;1071;47.9;42
02.09.2016;18:40:00;925;48.1;41
02.09.2016;18:50:00;868;48.2;40
02.09.2016;19:00:00;693;48.4;40
02.09.2016;19:10:00;575;48.5;40
02.09.2016;19:20:00;412;48.5;40
02.09.2016;19:30:00;324;48.6;39
02.09.2016;19:40:00;239;48.6;39
02.09.2016;19:50:00;158;48.7;39
02.09.2016;20:00:00;70;48.7;32
02.09.2016;20:10:00;0;48.7;0
02.09.2016;20:20:00;0;48.7;0
03.09.2016;06:55:00;24;0;19
03.09.2016;07:05:00;187;0;30
03.09.2016;07:15:00;304;0;31
03.09.2016;07:25:00;473;0.1;32
03.09.2016;07:35:00;585;0.2;32
03.09.2016;07:45:00;675;0.3;32
03.09.2016;07:55:00;837;0.4;33
03.09.2016;08:05:00;1051;0.6;33
03.09.2016;08:15:00;1177;0.8;33
03.09.2016;08:25:00;1409;1.0;34
03.09.2016;08:35:00;1599;1.3;34
03.09.2016;08:45:00;1902;1.6;34
03.09.2016;08:55:00;1987;1.9;35
03.09.2016;09:05:00;1985;2.2;35
03.09.2016;09:15:00;1889;2.5;36
03.09.2016;09:25:00;2145;2.9;36
03.09.2016;09:35:00;2255;3.2;37
03.09.2016;09:45:00;2622;3.6;37
03.09.2016;09:55:00;3500;4.2;39
03.09.2016;10:05:00;4435;4.8;40
03.09.2016;10:15:00;4984;5.6;43
03.09.2016;10:25:00;5260;6.5;45
03.09.2016;10:35:00;5239;7.4;47
03.09.2016;10:45:00;4639;8.2;47
03.09.2016;10:55:00;4679;8.9;48
03.09.2016;11:05:00;3734;9.6;47
03.09.2016;11:15:00;3213;10.1;46
03.09.2016;11:25:00;3461;10.7;46
03.09.2016;11:35:00;3767;11.3;46
03.09.2016;11:45:00;4730;12.0;47
03.09.2016;11:55:00;6006;12.9;46
03.09.2016;12:05:00;5729;13.9;46
03.09.2016;12:15:00;6549;14.9;46
03.09.2016;12:25:00;6460;16.0;47
03.09.2016;12:35:00;5482;16.9;44
03.09.2016;12:45:00;5243;17.8;46
03.09.2016;12:55:00;6278;18.8;46
03.09.2016;13:05:00;7007;19.9;47
03.09.2016;13:15:00;7213;21.1;45
03.09.2016;13:25:00;7048;22.3;44
03.09.2016;13:35:00;6104;23.4;46
03.09.2016;13:45:00;3386;24.0;44
03.09.2016;13:55:00;3901;24.6;45
03.09.2016;14:05:00;4087;25.3;47
03.09.2016;14:15:00;4442;26.0;48
03.09.2016;14:25:00;4423;26.7;47
03.09.2016;14:35:00;7791;27.8;47
03.09.2016;14:45:00;7431;29.0;45
03.09.2016;14:55:00;7024;30.0;46
03.09.2016;15:05:00;4145;30.9;46
03.09.2016;15:15:00;4206;31.6;47
03.09.2016;15:25:00;7319;32.8;44
03.09.2016;15:35:00;2780;33.5;45
03.09.2016;15:45:00;2173;33.8;45
03.09.2016;15:55:00;2148;34.2;44
03.09.2016;16:05:00;1756;34.5;44
03.09.2016;16:15:00;1774;34.8;43
03.09.2016;16:25:00;1910;35.1;43
03.09.2016;16:35:00;2279;35.5;43
03.09.2016;16:45:00;2916;35.9;43
03.09.2016;16:55:00;2966;36.4;44
03.09.2016;17:05:00;3301;36.9;44
03.09.2016;17:15:00;2412;37.4;44
03.09.2016;17:25:00;2310;37.8;44
03.09.2016;17:35:00;1909;38.1;43
03.09.2016;17:45:00;1821;38.4;43
03.09.2016;17:55:00;1863;38.7;42
03.09.2016;18:05:00;1702;39.0;42
03.09.2016;18:15:00;1824;39.3;42
03.09.2016;18:25:00;1463;39.6;41
03.09.2016;18:35:00;1461;39.8;41
03.09.2016;18:45:00;1243;40.0;40
03.09.2016;18:55:00;1055;40.2;40
03.09.2016;19:05:00;764;40.3;39
03.09.2016;19:15:00;534;40.4;39
03.09.2016;19:25:00;435;40.5;39
03.09.2016;19:35:00;337;40.6;39
03.09.2016;19:45:00;232;40.6;38
03.09.2016;19:55:00;177;40.6;38
03.09.2016;20:05:00;126;40.7;38
03.09.2016;20:10:00;41;40.7;20
04.09.2016;06:45:00;0;0;1
04.09.2016;06:55:00;154;0;29
04.09.2016;07:05:00;246;0;30
04.09.2016;07:15:00;309;0;31
04.09.2016;07:25:00;388;0.1;32
04.09.2016;07:35:00;506;0.2;32
04.09.2016;07:45:00;521;0.3;32
04.09.2016;07:55:00;624;0.4;33
04.09.2016;08:05:00;750;0.5;33
04.09.2016;08:15:00;1069;0.7;33
04.09.2016;08:25:00;1116;0.8;33
04.09.2016;08:35:00;1139;1.0;34
04.09.2016;08:45:00;1273;1.2;34
04.09.2016;08:55:00;1604;1.5;34
04.09.2016;09:05:00;1606;1.7;34
04.09.2016;09:15:00;1502;2.0;35
04.09.2016;09:25:00;1594;2.2;35
04.09.2016;09:35:00;1655;2.5;35
04.09.2016;09:45:00;1496;2.8;36
04.09.2016;09:55:00;3345;3.2;36
04.09.2016;10:05:00;3336;3.9;39
04.09.2016;10:15:00;4249;4.5;40
04.09.2016;10:25:00;5309;5.3;42
04.09.2016;10:35:00;2177;5.7;41
04.09.2016;10:45:00;2332;6.1;41
04.09.2016;10:55:00;2416;6.5;41
04.09.2016;11:05:00;2569;6.9;41
04.09.2016;11:15:00;2661;7.3;41
04.09.2016;11:25:00;2713;7.8;41
04.09.2016;11:35:00;2193;8.2;41
04.09.2016;11:45:00;2094;8.5;40
04.09.2016;11:55:00;2567;8.9;41
04.09.2016;12:05:00;3873;9.5;41
04.09.2016;12:15:00;3731;10.1;43
04.09.2016;12:25:00;3350;10.6;43
04.09.2016;12:35:00;3643;11.2;44
04.09.2016;12:45:00;3075;11.7;44
04.09.2016;12:55:00;2935;12.2;44
04.09.2016;13:05:00;3199;12.7;44
04.09.2016;13:15:00;3597;13.3;44
04.09.2016;13:25:00;2927;13.8;44
04.09.2016;13:35:00;2336;14.2;44
04.09.2016;13:45:00;2057;14.6;43
04.09.2016;13:55:00;1715;14.9;42
04.09.2016;14:05:00;2209;15.2;42
04.09.2016;14:15:00;2689;15.6;42
04.09.2016;14:25:00;2891;16.1;42
04.09.2016;14:35:00;2708;16.5;43
04.09.2016;14:45:00;2621;17.0;43
04.09.2016;14:55:00;2049;17.3;42
04.09.2016;15:05:00;1786;17.6;41
04.09.2016;15:15:00;1647;17.9;41
04.09.2016;15:25:00;1971;18.2;41
04.09.2016;15:35:00;1449;18.5;40
04.09.2016;15:45:00;1335;18.7;40
04.09.2016;15:55:00;1551;18.9;40
04.09.2016;16:05:00;1217;19.1;39
04.09.2016;16:15:00;995;19.3;39
04.09.2016;16:25:00;1056;19.5;39
04.09.2016;16:35:00;1075;19.7;38
04.09.2016;16:45:00;1166;19.9;38
04.09.2016;16:55:00;908;20.0;38
04.09.2016;17:05:00;846;20.2;38
04.09.2016;17:15:00;675;20.3;38
04.09.2016;17:25:00;702;20.4;38
04.09.2016;17:35:00;617;20.5;38
04.09.2016;17:45:00;536;20.6;38
04.09.2016;17:55:00;631;20.7;37
04.09.2016;18:05:00;578;20.8;37
04.09.2016;18:15:00;543;20.9;37
04.09.2016;18:25:00;420;20.9;37
04.09.2016;18:35:00;339;21.0;37
04.09.2016;18:45:00;218;21.0;37
04.09.2016;18:55:00;183;21.1;37
04.09.2016;19:05:00;165;21.1;37
04.09.2016;19:15:00;121;21.1;37
04.09.2016;19:25:00;114;21.1;37
04.09.2016;19:35:00;15;21.2;17
04.09.2016;19:45:00;0;21.2;0
04.09.2016;20:00:00;0;21.2;0
05.09.2016;07:35:00;0;0;23
05.09.2016;07:45:00;128;0;30
05.09.2016;07:55:00;140;0;31
05.09.2016;08:05:00;189;0;31
05.09.2016;08:15:00;221;0;32
05.09.2016;08:25:00;231;0.1;32
05.09.2016;08:35:00;228;0.1;32
05.09.2016;08:45:00;316;0.2;33
05.09.2016;08:55:00;339;0.2;33
05.09.2016;09:05:00;423;0.3;33
05.09.2016;09:15:00;430;0.4;33
05.09.2016;09:25:00;436;0.4;33
05.09.2016;09:35:00;358;0.5;33
05.09.2016;09:45:00;393;0.6;34
05.09.2016;09:55:00;530;0.7;34
05.09.2016;10:05:00;524;0.7;34
05.09.2016;10:15:00;586;0.8;34
05.09.2016;10:25:00;643;0.9;34
05.09.2016;10:35:00;792;1.1;34
05.09.2016;10:45:00;853;1.2;34
05.09.2016;10:55:00;949;1.3;34
05.09.2016;11:05:00;961;1.5;35
05.09.2016;11:15:00;721;1.6;35
05.09.2016;11:25:00;608;1.7;35
05.09.2016;11:35:00;806;1.9;35
05.09.2016;11:45:00;1300;2.1;35
05.09.2016;11:55:00;1752;2.3;35
05.09.2016;12:05:00;1379;2.6;35
05.09.2016;12:15:00;1620;2.8;35
05.09.2016;12:25:00;2346;3.1;35
05.09.2016;12:35:00;2595;3.6;37
05.09.2016;12:45:00;3363;4.1;38
05.09.2016;12:55:00;3795;4.7;39
05.09.2016;13:05:00;2241;5.1;40
05.09.2016;13:15:00;2734;5.6;40
05.09.2016;13:25:00;2996;6.0;40
05.09.2016;13:35:00;3433;6.6;41
05.09.2016;13:45:00;3049;7.1;42
05.09.2016;13:55:00;1936;7.5;41
05.09.2016;14:05:00;1630;7.8;40
05.09.2016;14:15:00;1795;8.1;39
05.09.2016;14:25:00;2047;8.4;40
05.09.2016;14:35:00;2873;8.9;40
05.09.2016;14:45:00;4012;9.5;41
05.09.2016;14:55:00;6057;10.4;45
05.09.2016;15:05:00;4757;11.2;46
05.09.2016;15:15:00;3526;11.8;46
05.09.2016;15:25:00;3358;12.4;45
05.09.2016;15:35:00;3427;12.9;45
05.09.2016;15:45:00;3246;13.5;45
05.09.2016;15:55:00;3083;14.0;45
05.09.2016;16:05:00;2133;14.4;44
05.09.2016;16:15:00;2411;14.8;43
05.09.2016;16:25:00;1756;15.0;42
05.09.2016;16:35:00;2280;15.4;42
05.09.2016;16:45:00;2085;15.7;41
05.09.2016;16:55:00;3220;16.3;43
05.09.2016;17:05:00;5152;16.9;44
05.09.2016;17:15:00;3797;17.6;45
05.09.2016;17:25:00;1516;18.1;44
05.09.2016;17:35:00;1522;18.3;43
05.09.2016;17:45:00;796;18.5;41
05.09.2016;17:55:00;699;18.6;40
05.09.2016;18:05:00;3010;19.0;41
05.09.2016;18:15:00;2520;19.5;42
05.09.2016;18:25:00;2065;19.8;41
05.09.2016;18:35:00;1710;20.1;41
05.09.2016;18:45:00;1414;20.4;40
05.09.2016;18:55:00;1013;20.5;39
05.09.2016;19:05:00;715;20.7;39
05.09.2016;19:15:00;461;20.8;39
05.09.2016;19:25:00;315;20.8;38
05.09.2016;19:35:00;214;20.8;38
05.09.2016;19:45:00;170;20.9;38
05.09.2016;19:55:00;135;20.9;38
05.09.2016;20:05:00;117;20.9;37
05.09.2016;20:15:00;0;20.9;0
06.09.2016;06:55:00;0;0;2
06.09.2016;07:05:00;160;0;29
06.09.2016;07:15:00;224;0;30
06.09.2016;07:25:00;277;0;31
06.09.2016;07:35:00;316;0.1;31
06.09.2016;07:45:00;359;0.2;32
06.09.2016;07:55:00;395;0.2;32
06.09.2016;08:05:00;443;0.3;32
06.09.2016;08:15:00;494;0.4;32
06.09.2016;08:25:00;648;0.5;33
06.09.2016;08:35:00;967;0.6;33
06.09.2016;08:45:00;1357;0.8;33
06.09.2016;08:55:00;1381;1.1;33
06.09.2016;09:05:00;1573;1.3;34
06.09.2016;09:15:00;1852;1.6;34
06.09.2016;09:25:00;2981;2.1;35
06.09.2016;09:35:00;3388;2.6;36
06.09.2016;09:45:00;3816;3.2;38
06.09.2016;09:55:00;4124;3.9;40
06.09.2016;10:05:00;4466;4.6;41
06.09.2016;10:15:00;4815;5.4;43
06.09.2016;10:25:00;5096;6.2;45
06.09.2016;10:35:00;5311;7.1;46
06.09.2016;10:45:00;5538;8.0;48
06.09.2016;10:55:00;5738;8.9;44
06.09.2016;11:05:00;6308;10.0;47
06.09.2016;11:15:00;5418;10.9;44
06.09.2016;11:25:00;3342;11.5;44
06.09.2016;11:35:00;5035;12.2;45
06.09.2016;11:45:00;7068;13.0;47
06.09.2016;11:55:00;7689;14.2;45
06.09.2016;12:05:00;4688;15.2;47
06.09.2016;12:15:00;7028;16.0;44
06.09.2016;12:25:00;7813;17.3;44
06.09.2016;12:35:00;5544;18.3;47
06.09.2016;12:45:00;5105;19.1;44
06.09.2016;12:55:00;2727;19.6;45
06.09.2016;13:05:00;5041;20.4;46
06.09.2016;13:15:00;5558;21.1;45
06.09.2016;13:25:00;7667;22.1;47
06.09.2016;13:35:00;6829;23.3;46
06.09.2016;13:45:00;8203;24.7;44
06.09.2016;13:55:00;8350;26.1;44
06.09.2016;14:05:00;7499;27.3;46
06.09.2016;14:15:00;7417;28.3;46
06.09.2016;14:25:00;1936;29.0;43
06.09.2016;14:35:00;7661;30.2;47
06.09.2016;14:45:00;7538;31.4;46
06.09.2016;14:55:00;7419;32.7;44
06.09.2016;15:05:00;7648;33.9;45
06.09.2016;15:15:00;6776;35.1;48
06.09.2016;15:25:00;6522;36.2;45
06.09.2016;15:35:00;6434;37.2;45
06.09.2016;15:45:00;6428;38.3;47
06.09.2016;15:55:00;6213;39.3;44
06.09.2016;16:05:00;6061;40.3;47
06.09.2016;16:15:00;5799;41.3;46
06.09.2016;16:25:00;5545;42.1;48
06.09.2016;16:35:00;5374;43.0;45
06.09.2016;16:45:00;4767;43.8;48
06.09.2016;16:55:00;5009;44.6;44
06.09.2016;17:05:00;2964;45.3;45
06.09.2016;17:15:00;4060;46.0;46
06.09.2016;17:25:00;3764;46.6;47
06.09.2016;17:35:00;3541;47.2;48
06.09.2016;17:45:00;3195;47.7;47
06.09.2016;17:55:00;2966;48.2;47
06.09.2016;18:05:00;2658;48.7;46
06.09.2016;18:15:00;2254;49.1;45
06.09.2016;18:25:00;1802;49.4;44
06.09.2016;18:35:00;1519;49.7;43
06.09.2016;18:45:00;1183;49.9;42
06.09.2016;18:55:00;885;50.0;41
06.09.2016;19:05:00;627;50.1;40
06.09.2016;19:15:00;419;50.2;40
06.09.2016;19:25:00;288;50.3;40
06.09.2016;19:35:00;201;50.3;39
06.09.2016;19:45:00;150;50.3;39
06.09.2016;19:55:00;109;50.4;39
06.09.2016;20:00:00;0;50.4;31
07.09.2016;07:25:00;220;0;31
07.09.2016;07:35:00;255;0.1;31
07.09.2016;07:45:00;287;0.1;31
07.09.2016;07:55:00;324;0.2;32
07.09.2016;08:05:00;351;0.2;32
07.09.2016;08:15:00;393;0.3;32
07.09.2016;08:25:00;485;0.4;33
07.09.2016;08:35:00;914;0.5;33
07.09.2016;08:45:00;1114;0.7;33
07.09.2016;08:55:00;1271;0.9;33
07.09.2016;09:05:00;1433;1.1;33
07.09.2016;09:15:00;2579;1.4;34
07.09.2016;09:25:00;3106;1.9;35
07.09.2016;09:35:00;3531;2.5;37
07.09.2016;09:45:00;3912;3.1;38
07.09.2016;09:55:00;4288;3.8;40
07.09.2016;10:05:00;4591;4.6;42
07.09.2016;10:15:00;4837;5.4;43
07.09.2016;10:25:00;5118;6.2;45
07.09.2016;10:35:00;5334;7.1;46
07.09.2016;10:45:00;5560;8.0;48
07.09.2016;10:55:00;5763;8.9;45
07.09.2016;11:05:00;5930;9.9;46
07.09.2016;11:15:00;6069;10.9;47
07.09.2016;11:25:00;6266;11.9;46
07.09.2016;11:35:00;6395;13.0;45
07.09.2016;11:45:00;6517;14.0;47
07.09.2016;11:55:00;6608;15.1;44
07.09.2016;12:10:00;6686;16.8;44
07.09.2016;12:20:00;6888;17.9;47
07.09.2016;12:30:00;6966;19.0;46
07.09.2016;12:40:00;6993;20.2;44
07.09.2016;12:50:00;7069;21.4;47
07.09.2016;13:00:00;7098;22.5;46
07.09.2016;13:10:00;7147;23.7;44
07.09.2016;13:20:00;7127;24.9;46
07.09.2016;13:30:00;7172;26.1;47
07.09.2016;13:40:00;7165;27.2;45
07.09.2016;13:50:00;7158;28.4;44
07.09.2016;14:00:00;7200;29.6;46
07.09.2016;14:10:00;7190;30.8;47